Regional Weather Roundup
Issued by NWS San Angelo, TX

Home | Current Version | Previous Version | Text Only | Print | Product List | Glossary Off
Versions: 1 2 3 4 5 6 7 8 9 10 11 12 13 14 15 16 17 18 19 20 21 22 23 24 25 26 27 28 29 30 31 32 33 34 35 36 37 38 39 40 41 42 43 44 45 46 47 48 49 50

000
ASUS44 KSJT 032310
RWRSJT
WEST CENTRAL TEXAS REGIONAL WEATHER ROUNDUP
NATIONAL WEATHER SERVICE SAN ANGELO TX
600 PM CDT MON AUG 03 2015

NOTE: "FAIR" INDICATES FEW OR NO CLOUDS BELOW 12,000 FEET WITH NO
SIGNIFICANT WEATHER AND/OR OBSTRUCTIONS TO VISIBILITY.

TXZ049-054-064>066-071>073-076>078-098-099-113-114-127-128-139-140-
154-155-168>170-040000
...LOCATIONS ACROSS WEST CENTRAL TEXAS...

CITY           SKY/WX    TMP DP  RH WIND       PRES   REMARKS
SAN ANGELO     MOSUNNY   98  58  26 E9        29.86F
ABILENE        MOSUNNY   97  61  30 SE15      29.89F
DYESS AFB      SUNNY     97  64  33 SE15      29.87F
JUNCTION       MOSUNNY   97  59  28 E12       29.88F
SWEETWATER     PTSUNNY   94  58  30 SE10G20   29.93F
BROWNWOOD      NOT AVBL
COLEMAN        CLEAR     96  63  33 E8        29.89F
SONORA         SUNNY     95  57  28 SE6       29.92F
OZONA          FAIR      97  54  23 SE13G18   29.91F
BRADY          MOSUNNY   97  61  30 E8        29.89F
$$

TEXAS PANHANDLE/OKLAHOMA PANHANDLE

CITY           SKY/WX    TMP DP  RH WIND       PRES   REMARKS
AMARILLO       SUNNY     84  68  58 SE17      29.97F
BORGER         MOSUNNY   88  68  51 S9        29.94F
CANADIAN       MOSUNNY   91  68  47 S10       29.91F
DALHART        MOSUNNY   85  65  51 SE14G22   29.97F
DUMAS          PTCLDY    82  67  60 SE12      29.96F
GUYMON         NOT AVBL
HEREFORD       CLEAR     89  66  46 MISG      29.98S
PAMPA          MOCLDY    89  67  48 S14G20    29.97F
PERRYTON       MOSUNNY   89  65  44 S10       29.94F
$$

SOUTHERN PANHANDLE/SOUTH PLAINS/ROLLING PLAINS

CITY           SKY/WX    TMP DP  RH WIND       PRES   REMARKS
LUBBOCK        PTSUNNY   90  60  36 S15       29.95S
SNYDER         SUNNY     94  63  35 SE9       29.92F
CHILDRESS      MOSUNNY   91  67  44 SE9       29.89F
SEMINOLE       PTCLDY    94  54  25 SE10      29.93S
$$

PERMIAN BASIN

CITY           SKY/WX    TMP DP  RH WIND       PRES   REMARKS
MIDLAND        MOSUNNY   98  56  24 SE14G20   29.89F
ODESSA         MOSUNNY   98  54  22 SE14G21   29.90F
WINK           MOSUNNY  100  56  23 S13       29.84F
$$

FAR WEST/SOUTHWEST MOUNTAINS/TRANS PECOS

CITY           SKY/WX    TMP DP  RH WIND       PRES   REMARKS
ALPINE         MOCLDY    88  56  33 SW3       30.08S THUNDER
DRYDEN           N/A    100  59  25 E9G17     29.85F
EL PASO        MOSUNNY   92  54  27 NW7       29.96F
FORT STOCKTON  MOSUNNY   97  57  26 SE7G21    29.89F
GUADALUPE PASS PTSUNNY   83  54  36 W17G28    30.11S
MARFA          PTSUNNY   84  57  39 W3        30.07F
PECOS          MOCLDY    94  58  29 S16       29.85S
$$

DALLAS/FORT WORTH METROPLEX

CITY           SKY/WX    TMP DP  RH WIND       PRES   REMARKS
DFW AIRPORT    PTSUNNY   97  57  26 SE13      29.86F
FTW MEACHAM    MOSUNNY   98  58  26 SE8       29.85F
DAL-EXECUTIVE  MOSUNNY   98  59  27 E9        29.86F
GRAND PRAIRIE  SUNNY     99  61  28 NE10G17   29.86F
ADDISON        MOSUNNY   97  57  26 E8        29.87
MESQUITE       PTCLDY    97  55  24 E5        29.87F
LANCASTER      PTCLDY    98  56  24 SE9       29.87F
$$

NORTH CENTRAL TEXAS

CITY           SKY/WX    TMP DP  RH WIND       PRES   REMARKS
SHRMAN/DENISON MOCLDY    94  62  34 CALM      29.89F
GAINESVILLE    CLOUDY    92  59  32 SE5       29.90F
BRIDGEPORT     NOT AVBL
DENTON         CLOUDY    97  60  29 SE6       29.86F
WAXAHACHIE     CLEAR     98  62  30 E7        29.88F
GRANBURY       CLEAR     98  58  25 E7        29.87F
$$

WESTERN NORTH TEXAS

CITY           SKY/WX    TMP DP  RH WIND       PRES   REMARKS
WICHITA FALLS  PTSUNNY   92  69  47 SE9       29.88F
VERNON         MOCLDY    88  63  43 SE9       29.90F
BRECKENRIDGE   PTCLDY    98  58  26 S10       29.87F
COMANCHE       MOSUNNY   97  63  32 SE10      29.89F
$$

CENTRAL AND SOUTH CENTRAL TEXAS

CITY           SKY/WX    TMP DP  RH WIND       PRES   REMARKS
AUSTIN/BERGSTM MOSUNNY   96  61  31 E13       29.85F
WACO           MOSUNNY   98  59  27 E8        29.86F
HILLSBORO      CLEAR     98  57  25 SE6       29.87F
TEMPLE         SUNNY     97  59  28 E9        29.87F
KILLEEN-GRAY   SUNNY     95  58  28 E13       29.87F
FORT HOOD      SUNNY     96  59  29 E8        29.86F
GEORGETOWN     MOSUNNY   97  57  26 E8        29.86F
LAGO VISTA     FAIR      96  56  25 SE7G16    29.90F
SAN MARCOS     SUNNY     97  59  28 SE9       29.86F
NEW BRAUNFELS  SUNNY     98  60  28 E12       29.84F
RANDOLPH AFB   SUNNY     96  57  27 E9        29.85F
SAN ANTONIO    MOSUNNY   97  60  29 E10       29.85F
STINSON        SUNNY     97  62  31 E9        29.82F
PLEASANTON     NOT AVBL
LA GRANGE      SUNNY     96  67  37 CALM      29.84F
GIDDINGS       PTCLDY    95  60  30 SE6       29.90S
$$

EAST TEXAS

CITY           SKY/WX    TMP DP  RH WIND       PRES   REMARKS
PARIS          MOSUNNY   97  63  32 E10       29.88F
CLARKSVILLE    NOT AVBL
TYLER          MOSUNNY   98  60  28 SE8       29.88F
LONGVIEW       MOSUNNY   99  59  26 SW3       29.87F
PALESTINE      CLEAR     98  58  26 E6        29.88F
NACOGDOCHES    SUNNY     95  63  34 E6        29.87F
$$

TEXAS HILL COUNTRY AND EDWARDS PLATEAU

CITY           SKY/WX    TMP DP  RH WIND       PRES   REMARKS
LLANO          CLEAR     99  57  25 SE12      29.89F
HORSESHOE BAY  FAIR      98  57  25 E3        29.88F
KERRVILLE      MOSUNNY   94  59  31 SE9       29.90F
FREDERICKSBRG  SUNNY     93  56  28 E3        29.91S
ROCKSPRINGS    PTCLDY    91  61  35 SE7       29.94F
HONDO          SUNNY     97  60  29 E9G18     29.86F
UVALDE         CLEAR     96  61  31 E12       29.85F
DEL RIO        SUNNY    100  58  24 E13G21    29.81F
$$

SOUTHEAST TEXAS

CITY           SKY/WX    TMP DP  RH WIND       PRES   REMARKS
COLLEGE STN    MOSUNNY   96  58  27 VRB3      29.86F
CALDWELL       PTCLDY    95  59  30 E7        29.89F
CROCKETT         N/A     99  63  30 SE5       29.90F
BRENHAM        SUNNY     96  63  32 E6        29.87S
HUNTSVILLE     SUNNY     97  61  30 VRB3      29.87F
CONROE         SUNNY     96  58  27 E7        29.87F
HOUSTON BUSH   MOSUNNY   94  66  39 E14G20    29.86S
HOUSTON HOBBY  MOSUNNY   93  70  46 S15       29.86S
PERLAND        MOSUNNY   92  71  50 S14G20    29.89S
WHARTON        PTCLDY    92  72  51 S14       29.86S
$$

THE UPPER TEXAS COAST

CITY           SKY/WX    TMP DP  RH WIND       PRES   REMARKS
ORANGE         PTCLDY    93  63  36 S12       29.88F
PORT ARTHUR    MOSUNNY   93  71  48 S9        29.87S
GALVESTON      MOSUNNY   88  76  67 S16       29.90S
ANGLETON       MOSUNNY   91  73  55 S10       29.89R
BAY CITY       PTCLDY    92  71  50 SE9       29.87S
$$

TEXAS COASTAL BEND, RIO GRANDE PLAINS DEEP SOUTH TEXAS

CITY           SKY/WX    TMP DP  RH WIND       PRES   REMARKS
VICTORIA       SUNNY     93  71  48 S15       29.86S
BEEVILLE       FAIR      92  75  56 SE9G18    29.84F
ROCKPORT       SUNNY     90  74  59 SE13      29.86S
PORT ARANSAS   CLEAR     88  76  69 SE13      29.86S
PORT LAVACA    PTCLDY    91  72  54 SE13      29.87S
CORPUS CHRISTI PTSUNNY   87  76  69 SE17      29.85F
KINGSVILLE NAS PTSUNNY   90  78  68 SE18G25   29.84S
COTULLA        MOSUNNY  100  62  28 SE10G16   29.81F
LAREDO         SUNNY    103  60  24 E8        29.80F
BROWNSVILLE    MOSUNNY   90  75  61 SE17      29.84F
PORT ISABEL    SUNNY     90  76  63 SE20      29.84F
HEBBRONVILLE     N/A     99  60  27 E8        29.82F
MCALLEN        SUNNY    100  69  36 SE17G26   29.79F
WESLACO        SUNNY     97  66  36 SE14G22   29.80F
FALFURRIAS     MOCLDY    95  75  52 E15G22    29.80S
EDINBURG       CLEAR     98  65  33 SE15      29.80S
$$


USA.gov is the U.S. government's official web portal to all federal, state and local government web resources and services.